| time (UTC) | temp C | wind direction | speed KPH | gust KPH | rain 1hr cm | rain 24hr cm | rain mn cm | humidity % | barometer mb |
| 20260507221521 | 6 | 120 | 0.0 | 3.2 | 0.00 | 0.00 | 0.00 | 55 | 1018.5 |
| 20260507220018 | 7 | 106 | 0.0 | 3.2 | 0.00 | 0.00 | 0.00 | 55 | 1018.5 |
| 20260507214517 | 7 | 117 | 0.0 | 3.2 | 0.00 | 0.00 | 0.00 | 54 | 1018.6 |
| 20260507213022 | 7 | 107 | 0.0 | 4.8 | 0.00 | 0.00 | 0.00 | 51 | 1018.5 |
| 20260507211517 | 7 | 113 | 0.0 | 4.8 | 0.00 | 0.00 | 0.00 | 50 | 1018.5 |
| 20260507210016 | 7 | 157 | 0.0 | 6.4 | 0.00 | 0.00 | 0.00 | 49 | 1018.5 |
| 20260507204519 | 7 | 78 | 0.0 | 4.8 | 0.00 | 0.00 | 0.00 | 51 | 1018.5 |
| 20260507203013 | 8 | 101 | 1.6 | 8.0 | 0.00 | 0.00 | 0.00 | 48 | 1018.5 |
| 20260507201515 | 8 | 123 | 1.6 | 6.4 | 0.00 | 0.00 | 0.00 | 48 | 1018.4 |
| 20260507200012 | 7 | 38 | 1.6 | 8.0 | 0.00 | 0.00 | 0.00 | 49 | 1018.4 |
| 20260507194509 | 7 | 112 | 0.0 | 6.4 | 0.00 | 0.00 | 0.00 | 51 | 1018.5 |
| 20260507193008 | 7 | 70 | 1.6 | 6.4 | 0.00 | 0.00 | 0.00 | 51 | 1018.6 |
| 20260507191504 | 7 | 157 | 0.0 | 6.4 | 0.00 | 0.00 | 0.00 | 53 | 1018.9 |
| 20260507190004 | 7 | 82 | 1.6 | 6.4 | 0.00 | 0.00 | 0.00 | 51 | 1018.9 |
| 20260507184501 | 8 | 115 | 0.0 | 8.0 | 0.00 | 0.00 | 0.00 | 54 | 1018.9 |
| 20260507183100 | 7 | 151 | 0.0 | 4.8 | 0.00 | 0.00 | 0.00 | 54 | 1019.0 |
| 20260507181606 | 7 | 87 | 0.0 | 6.4 | 0.00 | 0.00 | 0.00 | 52 | 1019.2 |
| 20260507180056 | 8 | 172 | 1.6 | 6.4 | 0.00 | 0.00 | 0.00 | 51 | 1019.2 |
| 20260507174601 | 7 | 98 | 1.6 | 4.8 | 0.00 | 0.00 | 0.00 | 53 | 1019.4 |
| 20260507173124 | 8 | 358 | 1.6 | 4.8 | 0.00 | 0.00 | 0.00 | 56 | 1019.5 |
| 20260507171557 | 7 | 128 | 1.6 | 4.8 | 0.00 | 0.00 | 0.00 | 58 | 1019.6 |
| 20260507170058 | 7 | 123 | 0.0 | 4.8 | 0.00 | 0.00 | 0.00 | 58 | 1019.9 |
| 20260507164552 | 7 | 79 | 1.6 | 6.4 | 0.00 | 0.00 | 0.00 | 61 | 1020.1 |
| 20260507163042 | 7 | 39 | 0.0 | 6.4 | 0.00 | 0.00 | 0.00 | 61 | 1020.1 |
| 20260507161556 | 7 | 32 | 1.6 | 4.8 | 0.00 | 0.00 | 0.00 | 60 | 1020.3 |
| 20260507160041 | 6 | 138 | 0.0 | 8.0 | 0.00 | 0.00 | 0.00 | 60 | 1020.4 |
| 20260507154540 | 6 | 64 | 0.0 | 3.2 | 0.00 | 0.00 | 0.00 | 61 | 1020.4 |
| 20260507153034 | 6 | 43 | 0.0 | 3.2 | 0.00 | 0.00 | 0.00 | 67 | 1020.5 |
| 20260507151531 | 6 | 111 | 0.0 | 3.2 | 0.00 | 0.00 | 0.00 | 72 | 1020.4 |
| 20260507150027 | 5 | 113 | 0.0 | 3.2 | 0.00 | 0.00 | 0.00 | 74 | 1020.5 |
| 20260507144525 | 5 | 108 | 0.0 | 3.2 | 0.00 | 0.00 | 0.00 | 76 | 1020.5 |
| 20260507143023 | 5 | 112 | 0.0 | 3.2 | 0.00 | 0.00 | 0.00 | 74 | 1020.5 |
| 20260507141519 | 4 | 89 | 0.0 | 3.2 | 0.00 | 0.00 | 0.00 | 77 | 1020.6 |
| 20260507140015 | 4 | 96 | 0.0 | 1.6 | 0.00 | 0.00 | 0.00 | 77 | 1020.6 |
| 20260507134517 | 3 | 172 | 0.0 | 1.6 | 0.00 | 0.00 | 0.00 | 79 | 1020.5 |
| 20260507133013 | 3 | 110 | 0.0 | 3.2 | 0.00 | 0.00 | 0.00 | 82 | 1020.6 |
| 20260507131508 | 2 | 122 | 0.0 | 1.6 | 0.00 | 0.00 | 0.00 | 82 | 1020.4 |
| 20260507130005 | 2 | 122 | 0.0 | 1.6 | 0.00 | 0.00 | 0.00 | 83 | 1020.5 |
| 20260507124508 | 2 | 143 | 0.0 | 1.6 | 0.00 | 0.00 | 0.00 | 84 | 1020.4 |
| 20260507123100 | 1 | 149 | 0.0 | 0.0 | 0.00 | 0.00 | 0.00 | 85 | 1020.3 |
| 20260507121601 | 1 | 153 | 0.0 | 0.0 | 0.00 | 0.00 | 0.00 | 87 | 1020.4 |
| 20260507114548 | 0 | 154 | 0.0 | 0.0 | 0.00 | 0.00 | 0.00 | 92 | 1020.1 |
| 20260507113050 | 0 | 154 | 0.0 | 0.0 | 0.00 | 0.00 | 0.00 | 93 | 1020.0 |
| 20260507111547 | -1 | 154 | 0.0 | 0.0 | 0.00 | 0.00 | 0.00 | 93 | 1020.0 |
| 20260507110045 | -2 | 154 | 0.0 | 0.0 | 0.00 | 0.00 | 0.00 | 94 | 1019.9 |
| 20260507104542 | -2 | 154 | 0.0 | 0.0 | 0.00 | 0.00 | 0.00 | 93 | 1019.8 |
| 20260507103041 | -2 | 154 | 0.0 | 0.0 | 0.00 | 0.00 | 0.00 | 93 | 1019.8 |
| 20260507101540 | -2 | 154 | 0.0 | 0.0 | 0.00 | 0.00 | 0.00 | 92 | 1019.8 |
| 20260507100040 | -2 | 154 | 0.0 | 0.0 | 0.00 | 0.00 | 0.00 | 92 | 1019.9 |
| 20260507094537 | -2 | 154 | 0.0 | 0.0 | 0.00 | 0.00 | 0.00 | 91 | 1019.9 |
| 20260507093036 | -2 | 154 | 0.0 | 0.0 | 0.00 | 0.00 | 0.00 | 91 | 1020.0 |
| 20260507091535 | -1 | 153 | 0.0 | 0.0 | 0.00 | 0.00 | 0.00 | 90 | 1020.1 |
| 20260507090136 | -1 | 154 | 0.0 | 0.0 | 0.00 | 0.00 | 0.00 | 90 | 1020.1 |
| 20260507084534 | -1 | 153 | 0.0 | 0.0 | 0.00 | 0.00 | 0.00 | 90 | 1020.1 |
| 20260507083032 | -1 | 154 | 0.0 | 0.0 | 0.00 | 0.00 | 0.00 | 91 | 1020.2 |
| 20260507081541 | -2 | 153 | 0.0 | 0.0 | 0.00 | 0.00 | 0.00 | 91 | 1020.2 |
| 20260507080036 | -2 | 154 | 0.0 | 0.0 | 0.00 | 0.00 | 0.00 | 91 | 1020.2 |
| 20260507074533 | -2 | 154 | 0.0 | 0.0 | 0.00 | 0.00 | 0.00 | 91 | 1020.3 |
| 20260507073027 | -2 | 154 | 0.0 | 0.0 | 0.00 | 0.00 | 0.00 | 90 | 1020.4 |
| 20260507071532 | -2 | 153 | 0.0 | 0.0 | 0.00 | 0.00 | 0.00 | 90 | 1020.5 |
| 20260507070023 | -2 | 154 | 0.0 | 0.0 | 0.00 | 0.00 | 0.00 | 89 | 1020.6 |
| 20260507064523 | -2 | 154 | 0.0 | 0.0 | 0.00 | 0.00 | 0.00 | 89 | 1020.8 |
| 20260507063019 | -2 | 154 | 0.0 | 0.0 | 0.00 | 0.00 | 0.00 | 89 | 1020.9 |
| 20260507061523 | -2 | 154 | 0.0 | 0.0 | 0.00 | 0.00 | 0.00 | 87 | 1020.9 |
| 20260507060015 | -2 | 158 | 0.0 | 0.0 | 0.00 | 0.00 | 0.00 | 87 | 1020.9 |
| 20260507054515 | -2 | 158 | 0.0 | 0.0 | 0.00 | 0.00 | 0.00 | 87 | 1021.0 |
| 20260507053011 | -1 | 158 | 0.0 | 0.0 | 0.00 | 0.00 | 0.00 | 86 | 1021.0 |
| 20260507051509 | -1 | 158 | 0.0 | 0.0 | 0.00 | 0.00 | 0.00 | 85 | 1021.0 |
| 20260507050007 | -1 | 158 | 0.0 | 0.0 | 0.00 | 0.00 | 0.00 | 86 | 1021.1 |
| 20260507044507 | -1 | 158 | 0.0 | 0.0 | 0.00 | 0.00 | 0.00 | 83 | 1021.2 |
| 20260507043101 | -1 | 158 | 0.0 | 0.0 | 0.00 | 0.00 | 0.00 | 82 | 1021.3 |
| 20260507041603 | 0 | 158 | 0.0 | 0.0 | 0.00 | 0.00 | 0.00 | 82 | 1021.3 |
| 20260507040105 | 0 | 158 | 0.0 | 0.0 | 0.00 | 0.00 | 0.00 | 79 | 1021.4 |
| 20260507034615 | 0 | 158 | 0.0 | 0.0 | 0.00 | 0.00 | 0.00 | 77 | 1021.3 |
| 20260507033105 | 0 | 158 | 0.0 | 0.0 | 0.00 | 0.00 | 0.00 | 76 | 1021.4 |
| 20260507031554 | 1 | 158 | 0.0 | 0.0 | 0.00 | 0.00 | 0.00 | 73 | 1021.4 |
| 20260507030053 | 1 | 158 | 0.0 | 0.0 | 0.00 | 0.00 | 0.00 | 73 | 1021.4 |
| 20260507024557 | 1 | 158 | 0.0 | 0.0 | 0.00 | 0.00 | 0.00 | 70 | 1021.2 |
| 20260507023049 | 2 | 158 | 0.0 | 0.0 | 0.00 | 0.00 | 0.00 | 69 | 1021.2 |
| 20260507021557 | 2 | 158 | 0.0 | 0.0 | 0.00 | 0.00 | 0.00 | 67 | 1021.2 |
| 20260507020047 | 2 | 158 | 0.0 | 0.0 | 0.00 | 0.00 | 0.00 | 66 | 1021.1 |
| 20260507014547 | 3 | 158 | 0.0 | 0.0 | 0.00 | 0.00 | 0.00 | 63 | 1021.1 |
| 20260507013045 | 3 | 158 | 0.0 | 0.0 | 0.00 | 0.00 | 0.00 | 64 | 1021.1 |
| 20260507011545 | 3 | 158 | 0.0 | 0.0 | 0.00 | 0.00 | 0.00 | 61 | 1020.8 |
| 20260507010048 | 3 | 122 | 0.0 | 1.6 | 0.00 | 0.00 | 0.00 | 61 | 1020.8 |
| 20260507004543 | 3 | 104 | 0.0 | 1.6 | 0.00 | 0.00 | 0.00 | 58 | 1020.7 |
| 20260507003042 | 3 | 104 | 0.0 | 1.6 | 0.00 | 0.00 | 0.00 | 58 | 1020.7 |
| 20260507001604 | 4 | 80 | 0.0 | 1.6 | 0.00 | 0.00 | 0.00 | 57 | 1020.7 |
| 20260507000042 | 4 | 128 | 0.0 | 1.6 | 0.00 | 0.00 | 0.00 | 56 | 1020.7 |
| 20260506234552 | 4 | 102 | 0.0 | 1.6 | 0.00 | 0.00 | 0.00 | 55 | 1020.7 |
| 20260506233041 | 4 | 46 | 0.0 | 3.2 | 0.00 | 0.00 | 0.00 | 55 | 1020.6 |
| 20260506231540 | 5 | 136 | 0.0 | 1.6 | 0.00 | 0.00 | 0.00 | 56 | 1020.7 |
| 20260506230039 | 5 | 103 | 0.0 | 3.2 | 0.00 | 0.00 | 0.00 | 55 | 1020.7 |
| 20260506224549 | 5 | 132 | 0.0 | 3.2 | 0.00 | 0.00 | 0.00 | 55 | 1020.7 |
| 20260506223038 | 5 | 117 | 0.0 | 3.2 | 0.00 | 0.00 | 0.00 | 56 | 1020.6 |